sat.trackr.live / text

‹ back to catalog

NUSHSAT1

NORAD 63211 · 2025-052B

PAYLOAD ACTIVE UNKNOWN

§ Identity

Operator
Country
SING
Launch date
2025-03-15
Launch site
AFWTR
Launch vehicle
Mass (kg)
RCS (m²)

External: N2YO · Heavens-Above · Gunter

§ Orbital elements

Epoch: 2026-05-25T04:26:54.322080Z

Period
93.81 min
Inclination
97.4007°
Eccentricity
0.0004120
Mean motion
15.34937191 rev/d
Perigee alt
458.3 km
Apogee alt
463.9 km
Semi-major
6,839.2 km
B*
6.0486e-4
RAAN
42.4099°
Arg perigee
137.7707°
Mean anomaly
222.3854°
Rev number
6,661

§ Raw data

NUSHSAT11 63211U 25052B   26145.18535095  .00020451  00000+0  60486-3 0  99992 63211  97.4007  42.4099 0004120 137.7707 222.3854 15.34937191 66617

JSON: /api/v1/satellites/63211 · /tle

For live sub-satellite position, see the globe view (requires WebGL).

§ Visibility from observer

Set your observer location to see the next 7 days of passes ≥ 10°. The values pass through the URL so the page stays shareable.

No JS? Fill the form by hand. The geolocation button needs JavaScript.

§ Radio — SatNOGS DB

ModeDescriptionDownlinkUplink
FSK AX.100 Mode 5 AX.100 2400 baud 436.200 MHz
FSK AX.100 Mode 5 Mode U - Transmitter 436.200 MHz

2 transmitters · refreshed weekly from db.satnogs.org